Location: Bidart
(43.4376°N, 1.5913°W)
Time: 18:47:58
(UTC+00:00)

ISS - Pass Details

Date: 23 January 2026
Orbit: 413 x 429 km, 51.6° (Epoch: 11 February)

Event Time Altitude Azimuth Distance (km) Brightness Sun altitude
Rises 17:38:11 0° 294° (WNW) 2,361 0.8 -6.2°
Reaches altitude 10° 17:40:40 10° 313° (NW) 1,501 -0.6 -6.6°
Maximum altitude 17:43:14 20° 2° (N) 1,044 -2.0 -7.1°
Drops below altitude 10° 17:45:48 10° 52° (NE) 1,508 -1.5 -7.5°
Enters shadow 17:46:00 - 54° (NE) 1,570 -1.5 -7.5°
